Time,TemperatureF,DewpointF,PressureIn,WindDirection,WindDirectionDegrees,WindSpeedMPH,WindSpeedGustMPH,Humidity,HourlyPrecipIn,Conditions,Clouds,dailyrainin,SoftwareType,DateUTC
2013-10-08 00:02:00,52.9,46.2,30.09,SSW,202,0.0,0.0,78,0.00,,,0.00,WUHU21623XXSP,2013-10-08 05:02:00,
2013-10-08 00:07:00,52.9,46.2,30.09,SW,225,0.0,0.0,78,0.00,,,0.00,WUHU21623XXSP,2013-10-08 05:07:00,
2013-10-08 00:12:00,52.9,46.2,30.09,SW,225,0.0,0.0,78,0.00,,,0.00,WUHU21623XXSP,2013-10-08 05:12:00,
2013-10-08 00:17:00,52.9,46.2,30.09,SSW,202,0.0,0.0,78,0.00,,,0.00,WUHU21623XXSP,2013-10-08 05:17:00,
2013-10-08 00:22:00,52.9,46.2,30.09,SSW,202,0.0,0.0,78,0.00,,,0.00,WUHU21623XXSP,2013-10-08 05:22:00,
2013-10-08 00:27:00,52.7,46.1,30.09,SSW,202,0.0,0.0,78,0.00,,,0.00,WUHU21623XXSP,2013-10-08 05:27:00,
2013-10-08 00:32:00,52.7,46.1,30.09,SSW,202,0.0,0.0,78,0.00,,,0.00,WUHU21623XXSP,2013-10-08 05:32:00,
2013-10-08 00:37:00,52.5,46.1,30.10,SSW,202,0.0,0.0,78,0.00,,,0.00,WUHU21623XXSP,2013-10-08 05:37:00,
2013-10-08 00:42:00,52.5,45.9,30.09,SSW,202,0.0,0.0,78,0.00,,,0.00,WUHU21623XXSP,2013-10-08 05:42:00,
2013-10-08 00:47:00,52.5,45.9,30.09,SSW,202,0.0,0.0,78,0.00,,,0.00,WUHU21623XXSP,2013-10-08 05:47:00,
2013-10-08 00:52:00,52.5,46.2,30.09,SSW,202,0.0,0.0,79,0.00,,,0.00,WUHU21623XXSP,2013-10-08 05:52:00,
2013-10-08 00:57:00,52.3,46.0,30.09,SSW,202,0.0,0.0,79,0.00,,,0.00,WUHU21623XXSP,2013-10-08 05:57:00,
2013-10-08 01:02:00,52.3,46.0,30.09,SSW,202,0.0,0.0,79,0.00,,,0.00,WUHU21623XXSP,2013-10-08 06:02:00,
2013-10-08 01:07:00,52.3,46.0,30.09,SSW,202,0.0,0.0,79,0.00,,,0.00,WUHU21623XXSP,2013-10-08 06:07:00,
2013-10-08 01:12:00,52.2,45.9,30.10,South,180,0.0,0.0,79,0.00,,,0.00,WUHU21623XXSP,2013-10-08 06:12:00,
2013-10-08 01:17:00,52.0,45.9,30.10,South,180,0.0,0.0,79,0.00,,,0.00,WUHU21623XXSP,2013-10-08 06:17:00,
2013-10-08 01:22:00,52.0,45.7,30.10,South,180,0.0,0.0,79,0.00,,,0.00,WUHU21623XXSP,2013-10-08 06:22:00,
2013-10-08 01:27:00,51.8,45.5,30.10,SSW,202,0.0,0.0,79,0.00,,,0.00,WUHU21623XXSP,2013-10-08 06:27:00,
2013-10-08 01:32:00,52.0,45.5,30.10,SSW,202,0.9,0.9,79,0.00,,,0.00,WUHU21623XXSP,2013-10-08 06:32:00,
2013-10-08 01:37:00,52.0,45.7,30.10,SSW,202,1.6,1.6,79,0.00,,,0.00,WUHU21623XXSP,2013-10-08 06:37:00,
2013-10-08 01:42:00,52.0,45.7,30.11,SSW,202,0.0,1.6,79,0.00,,,0.00,WUHU21623XXSP,2013-10-08 06:42:00,
2013-10-08 01:47:00,52.0,45.7,30.11,SSW,202,0.0,0.0,79,0.00,,,0.00,WUHU21623XXSP,2013-10-08 06:47:00,
2013-10-08 01:52:00,52.0,45.7,30.11,South,180,0.0,0.0,79,0.00,,,0.00,WUHU21623XXSP,2013-10-08 06:52:00,
2013-10-08 01:57:00,51.8,45.5,30.10,South,180,0.0,0.0,79,0.00,,,0.00,WUHU21623XXSP,2013-10-08 06:57:00,
2013-10-08 02:02:00,51.6,45.3,30.11,South,180,0.0,0.0,79,0.00,,,0.00,WUHU21623XXSP,2013-10-08 07:02:00,
2013-10-08 02:07:00,51.4,45.2,30.11,South,180,0.0,0.0,79,0.00,,,0.00,WUHU21623XXSP,2013-10-08 07:07:00,
2013-10-08 02:12:00,51.4,45.2,30.11,South,180,0.0,0.0,79,0.00,,,0.00,WUHU21623XXSP,2013-10-08 07:12:00,
2013-10-08 02:17:00,51.3,45.0,30.11,South,180,0.0,0.0,79,0.00,,,0.00,WUHU21623XXSP,2013-10-08 07:17:00,
2013-10-08 02:22:00,50.7,45.0,30.11,South,180,0.0,0.0,80,0.00,,,0.00,WUHU21623XXSP,2013-10-08 07:22:00,
2013-10-08 02:27:00,50.7,44.8,30.11,South,180,0.0,0.0,80,0.00,,,0.00,WUHU21623XXSP,2013-10-08 07:27:00,
2013-10-08 02:32:00,50.5,44.6,30.11,South,180,0.0,0.0,80,0.00,,,0.00,WUHU21623XXSP,2013-10-08 07:32:00,
2013-10-08 02:37:00,50.4,44.6,30.11,South,180,0.0,0.0,80,0.00,,,0.00,WUHU21623XXSP,2013-10-08 07:37:00,
2013-10-08 02:42:00,50.2,44.5,30.11,South,180,0.0,0.0,81,0.00,,,0.00,WUHU21623XXSP,2013-10-08 07:42:00,
2013-10-08 02:47:00,50.2,44.5,30.11,South,180,0.0,0.0,81,0.00,,,0.00,WUHU21623XXSP,2013-10-08 07:47:00,
2013-10-08 02:52:00,49.8,44.2,30.11,South,180,0.0,0.0,81,0.00,,,0.00,WUHU21623XXSP,2013-10-08 07:52:00,
2013-10-08 02:57:00,49.8,44.5,30.11,South,180,0.0,0.0,82,0.00,,,0.00,WUHU21623XXSP,2013-10-08 07:57:00,
2013-10-08 03:02:00,49.6,44.3,30.11,South,180,0.0,0.0,82,0.00,,,0.00,WUHU21623XXSP,2013-10-08 08:02:00,
2013-10-08 03:07:00,49.5,43.8,30.11,South,180,0.0,0.0,82,0.00,,,0.00,WUHU21623XXSP,2013-10-08 08:07:00,
2013-10-08 03:12:00,49.3,44.0,30.11,South,180,0.0,0.0,82,0.00,,,0.00,WUHU21623XXSP,2013-10-08 08:12:00,
2013-10-08 03:17:00,49.1,43.8,30.11,South,180,0.0,0.0,82,0.00,,,0.00,WUHU21623XXSP,2013-10-08 08:17:00,
2013-10-08 03:22:00,49.1,43.8,30.11,South,180,0.0,0.0,82,0.00,,,0.00,WUHU21623XXSP,2013-10-08 08:22:00,
2013-10-08 03:27:00,48.9,43.6,30.11,South,180,0.0,0.0,83,0.00,,,0.00,WUHU21623XXSP,2013-10-08 08:27:00,
2013-10-08 03:32:00,48.9,43.9,30.11,South,180,0.0,0.0,83,0.00,,,0.00,WUHU21623XXSP,2013-10-08 08:32:00,
2013-10-08 03:37:00,48.7,43.8,30.11,South,180,0.0,0.0,83,0.00,,,0.00,WUHU21623XXSP,2013-10-08 08:37:00,
2013-10-08 03:42:00,48.6,43.6,30.12,South,180,0.0,0.0,83,0.00,,,0.00,WUHU21623XXSP,2013-10-08 08:42:00,
2013-10-08 03:47:00,48.4,43.7,30.12,South,180,0.0,0.0,84,0.00,,,0.00,WUHU21623XXSP,2013-10-08 08:47:00,
2013-10-08 03:52:00,48.0,43.6,30.12,South,180,0.0,0.0,84,0.00,,,0.00,WUHU21623XXSP,2013-10-08 08:52:00,
2013-10-08 03:57:00,48.0,43.4,30.12,South,180,0.0,0.0,84,0.00,,,0.00,WUHU21623XXSP,2013-10-08 08:57:00,
2013-10-08 04:02:00,47.8,43.4,30.12,South,180,0.0,0.0,84,0.00,,,0.00,WUHU21623XXSP,2013-10-08 09:02:00,
2013-10-08 04:07:00,47.8,43.2,30.13,South,180,0.0,0.0,84,0.00,,,0.00,WUHU21623XXSP,2013-10-08 09:07:00,
2013-10-08 04:12:00,47.7,43.4,30.13,South,180,0.0,0.0,85,0.00,,,0.00,WUHU21623XXSP,2013-10-08 09:12:00,
2013-10-08 04:18:00,47.7,43.4,30.13,South,180,0.0,0.0,85,0.00,,,0.00,WUHU21623XXSP,2013-10-08 09:18:00,
2013-10-08 04:23:00,47.7,43.4,30.13,South,180,0.0,0.0,85,0.00,,,0.00,WUHU21623XXSP,2013-10-08 09:23:00,
2013-10-08 04:28:00,47.5,43.2,30.12,South,180,0.0,0.0,85,0.00,,,0.00,WUHU21623XXSP,2013-10-08 09:28:00,
2013-10-08 04:33:00,47.5,43.2,30.13,South,180,0.0,0.0,85,0.00,,,0.00,WUHU21623XXSP,2013-10-08 09:33:00,
2013-10-08 04:38:00,47.1,43.2,30.13,South,180,0.0,0.0,86,0.00,,,0.00,WUHU21623XXSP,2013-10-08 09:38:00,
2013-10-08 04:43:00,47.1,43.2,30.13,South,180,0.0,0.0,86,0.00,,,0.00,WUHU21623XXSP,2013-10-08 09:43:00,
2013-10-08 04:48:00,46.9,43.0,30.13,South,180,0.0,0.0,86,0.00,,,0.00,WUHU21623XXSP,2013-10-08 09:48:00,
2013-10-08 04:53:00,46.8,43.0,30.13,South,180,0.0,0.0,86,0.00,,,0.00,WUHU21623XXSP,2013-10-08 09:53:00,
2013-10-08 04:58:00,46.6,42.8,30.13,South,180,0.0,0.0,86,0.00,,,0.00,WUHU21623XXSP,2013-10-08 09:58:00,
2013-10-08 05:03:00,46.6,42.9,30.14,South,180,0.0,0.0,87,0.00,,,0.00,WUHU21623XXSP,2013-10-08 10:03:00,
2013-10-08 05:08:00,46.2,42.6,30.14,South,180,0.0,0.0,87,0.00,,,0.00,WUHU21623XXSP,2013-10-08 10:08:00,
2013-10-08 05:13:00,46.2,42.6,30.14,South,180,0.0,0.0,87,0.00,,,0.00,WUHU21623XXSP,2013-10-08 10:13:00,
2013-10-08 05:18:00,46.2,42.6,30.14,South,180,0.0,0.0,87,0.00,,,0.00,WUHU21623XXSP,2013-10-08 10:18:00,
2013-10-08 05:23:00,46.0,42.4,30.14,South,180,0.0,0.0,87,0.00,,,0.00,WUHU21623XXSP,2013-10-08 10:23:00,
2013-10-08 05:28:00,46.0,42.7,30.15,South,180,0.0,0.0,88,0.00,,,0.00,WUHU21623XXSP,2013-10-08 10:28:00,
2013-10-08 05:33:00,45.9,42.5,30.14,South,180,0.0,0.0,88,0.00,,,0.00,WUHU21623XXSP,2013-10-08 10:33:00,
2013-10-08 05:38:00,45.7,42.4,30.14,South,180,0.0,0.0,88,0.00,,,0.00,WUHU21623XXSP,2013-10-08 10:38:00,
2013-10-08 05:43:00,45.7,42.4,30.14,South,180,0.0,0.0,88,0.00,,,0.00,WUHU21623XXSP,2013-10-08 10:43:00,
2013-10-08 05:48:00,45.7,42.4,30.15,South,180,0.0,0.0,88,0.00,,,0.00,WUHU21623XXSP,2013-10-08 10:48:00,
2013-10-08 05:53:00,45.7,42.4,30.15,South,180,0.0,0.0,88,0.00,,,0.00,WUHU21623XXSP,2013-10-08 10:53:00,
2013-10-08 05:58:00,45.7,42.4,30.15,South,180,0.0,0.0,88,0.00,,,0.00,WUHU21623XXSP,2013-10-08 10:58:00,
2013-10-08 06:03:00,45.5,42.2,30.15,South,180,0.0,0.0,88,0.00,,,0.00,WUHU21623XXSP,2013-10-08 11:03:00,
2013-10-08 06:08:00,45.5,42.2,30.15,South,180,0.0,0.0,88,0.00,,,0.00,WUHU21623XXSP,2013-10-08 11:08:00,
2013-10-08 06:14:00,45.5,42.2,30.16,South,180,0.0,0.0,88,0.00,,,0.00,WUHU21623XXSP,2013-10-08 11:14:00,
2013-10-08 06:19:00,45.3,42.2,30.16,South,180,0.0,0.0,89,0.00,,,0.00,WUHU21623XXSP,2013-10-08 11:19:00,
2013-10-08 06:24:00,45.3,42.3,30.16,South,180,0.0,0.0,89,0.00,,,0.00,WUHU21623XXSP,2013-10-08 11:24:00,
2013-10-08 06:29:00,45.3,42.3,30.16,South,180,0.0,0.0,89,0.00,,,0.00,WUHU21623XXSP,2013-10-08 11:29:00,
2013-10-08 06:34:00,45.3,42.3,30.16,South,180,0.0,0.0,89,0.00,,,0.00,WUHU21623XXSP,2013-10-08 11:34:00,
2013-10-08 06:39:00,45.3,42.3,30.16,South,180,0.0,0.0,89,0.00,,,0.00,WUHU21623XXSP,2013-10-08 11:39:00,
2013-10-08 06:44:00,45.5,42.5,30.16,South,180,0.0,0.0,89,0.00,,,0.00,WUHU21623XXSP,2013-10-08 11:44:00,
2013-10-08 06:49:00,45.7,42.7,30.16,South,180,0.0,0.0,89,0.00,,,0.00,WUHU21623XXSP,2013-10-08 11:49:00,
2013-10-08 06:54:00,45.7,42.5,30.16,South,180,0.0,0.0,89,0.00,,,0.00,WUHU21623XXSP,2013-10-08 11:54:00,
2013-10-08 06:59:00,45.7,42.7,30.17,South,180,0.0,0.0,89,0.00,,,0.00,WUHU21623XXSP,2013-10-08 11:59:00,
2013-10-08 07:04:00,45.7,42.7,30.17,South,180,0.0,0.0,89,0.00,,,0.00,WUHU21623XXSP,2013-10-08 12:04:00,
2013-10-08 07:09:00,46.0,43.0,30.17,South,180,0.0,0.0,89,0.00,,,0.00,WUHU21623XXSP,2013-10-08 12:09:00,
2013-10-08 07:14:00,46.2,43.2,30.17,South,180,0.0,0.0,89,0.00,,,0.00,WUHU21623XXSP,2013-10-08 12:14:00,
2013-10-08 07:19:00,46.2,43.2,30.17,South,180,0.0,0.0,89,0.00,,,0.00,WUHU21623XXSP,2013-10-08 12:19:00,
2013-10-08 07:24:00,46.6,43.6,30.17,SSE,157,0.0,0.0,89,0.00,,,0.00,WUHU21623XXSP,2013-10-08 12:24:00,
2013-10-08 07:29:00,46.8,43.7,30.17,SSE,157,0.0,0.0,89,0.00,,,0.00,WUHU21623XXSP,2013-10-08 12:29:00,
2013-10-08 07:34:00,46.8,43.7,30.17,SSE,157,0.0,0.0,89,0.00,,,0.00,WUHU21623XXSP,2013-10-08 12:34:00,
2013-10-08 07:39:00,47.3,44.1,30.18,SSE,157,0.0,0.0,89,0.00,,,0.00,WUHU21623XXSP,2013-10-08 12:39:00,
2013-10-08 07:44:00,47.3,44.3,30.18,SSE,157,0.0,0.0,89,0.00,,,0.00,WUHU21623XXSP,2013-10-08 12:44:00,
2013-10-08 07:49:00,48.0,45.0,30.18,South,180,0.0,0.0,89,0.00,,,0.00,WUHU21623XXSP,2013-10-08 12:49:00,
2013-10-08 07:54:00,48.9,45.8,30.18,South,180,0.0,0.0,89,0.00,,,0.00,WUHU21623XXSP,2013-10-08 12:54:00,
2013-10-08 07:59:00,49.3,46.1,30.18,South,180,0.0,0.0,89,0.00,,,0.00,WUHU21623XXSP,2013-10-08 12:59:00,
2013-10-08 08:04:00,49.6,46.5,30.18,South,180,0.0,0.0,89,0.00,,,0.00,WUHU21623XXSP,2013-10-08 13:04:00,
2013-10-08 08:09:00,50.2,47.0,30.18,South,180,0.0,0.0,89,0.00,,,0.00,WUHU21623XXSP,2013-10-08 13:09:00,
2013-10-08 08:14:00,50.7,47.4,30.18,South,180,0.0,0.0,89,0.00,,,0.00,WUHU21623XXSP,2013-10-08 13:14:00,
2013-10-08 08:19:00,51.4,47.9,30.18,South,180,0.0,0.0,89,0.00,,,0.00,WUHU21623XXSP,2013-10-08 13:19:00,
2013-10-08 08:24:00,52.0,48.6,30.19,South,180,0.0,0.0,89,0.00,,,0.00,WUHU21623XXSP,2013-10-08 13:24:00,
2013-10-08 08:30:00,52.3,49.0,30.19,South,180,0.0,0.0,88,0.00,,,0.00,WUHU21623XXSP,2013-10-08 13:30:00,
2013-10-08 08:35:00,52.9,49.4,30.19,South,180,0.0,0.0,88,0.00,,,0.00,WUHU21623XXSP,2013-10-08 13:35:00,
2013-10-08 08:40:00,53.4,49.6,30.19,South,180,0.0,0.0,87,0.00,,,0.00,WUHU21623XXSP,2013-10-08 13:40:00,
2013-10-08 08:45:00,54.0,50.0,30.19,South,180,0.0,0.0,86,0.00,,,0.00,WUHU21623XXSP,2013-10-08 13:45:00,
2013-10-08 08:50:00,54.3,49.9,30.19,South,180,0.0,0.0,85,0.00,,,0.00,WUHU21623XXSP,2013-10-08 13:50:00,
2013-10-08 08:55:00,54.9,49.9,30.19,South,180,0.0,0.0,84,0.00,,,0.00,WUHU21623XXSP,2013-10-08 13:55:00,
2013-10-08 09:00:00,55.2,50.2,30.19,South,180,0.0,0.0,83,0.00,,,0.00,WUHU21623XXSP,2013-10-08 14:00:00,
2013-10-08 09:05:00,55.6,50.1,30.20,South,180,0.0,0.0,82,0.00,,,0.00,WUHU21623XXSP,2013-10-08 14:05:00,
2013-10-08 09:10:00,56.1,50.3,30.20,South,180,0.0,0.0,82,0.00,,,0.00,WUHU21623XXSP,2013-10-08 14:10:00,
2013-10-08 09:15:00,56.1,50.3,30.20,South,180,0.0,0.0,81,0.00,,,0.00,WUHU21623XXSP,2013-10-08 14:15:00,
2013-10-08 09:20:00,56.7,50.7,30.20,South,180,0.0,0.0,80,0.00,,,0.00,WUHU21623XXSP,2013-10-08 14:20:00,
2013-10-08 09:25:00,57.0,50.5,30.20,South,180,0.0,0.0,79,0.00,,,0.00,WUHU21623XXSP,2013-10-08 14:25:00,
2013-10-08 09:30:00,57.7,51.3,30.20,South,180,0.0,0.0,79,0.00,,,0.00,WUHU21623XXSP,2013-10-08 14:30:00,
2013-10-08 09:35:00,58.1,51.4,30.20,South,180,0.0,0.0,78,0.00,,,0.00,WUHU21623XXSP,2013-10-08 14:35:00,
2013-10-08 09:40:00,58.8,51.4,30.20,South,180,0.0,0.0,77,0.00,,,0.00,WUHU21623XXSP,2013-10-08 14:40:00,
2013-10-08 09:45:00,58.8,51.3,30.19,SSW,202,0.0,0.0,76,0.00,,,0.00,WUHU21623XXSP,2013-10-08 14:45:00,
2013-10-08 09:50:00,58.8,50.9,30.19,SSW,202,0.0,0.0,75,0.00,,,0.00,WUHU21623XXSP,2013-10-08 14:50:00,
2013-10-08 09:55:00,59.5,51.6,30.20,SSW,202,0.0,0.0,75,0.00,,,0.00,WUHU21623XXSP,2013-10-08 14:55:00,
2013-10-08 10:00:00,59.9,52.0,30.20,SSW,202,0.0,0.0,75,0.00,,,0.00,WUHU21623XXSP,2013-10-08 15:00:00,
2013-10-08 10:05:00,60.4,52.0,30.20,SSW,202,0.0,0.0,74,0.00,,,0.00,WUHU21623XXSP,2013-10-08 15:05:00,
2013-10-08 10:10:00,61.0,52.3,30.20,SSW,202,0.0,0.0,73,0.00,,,0.00,WUHU21623XXSP,2013-10-08 15:10:00,
2013-10-08 10:15:00,61.3,52.3,30.20,SSW,202,0.0,0.0,72,0.00,,,0.00,WUHU21623XXSP,2013-10-08 15:15:00,
2013-10-08 10:20:00,61.5,52.4,30.20,SSW,202,0.0,0.0,72,0.00,,,0.00,WUHU21623XXSP,2013-10-08 15:20:00,
2013-10-08 10:25:00,61.9,52.7,30.20,SSW,202,0.0,0.0,71,0.00,,,0.00,WUHU21623XXSP,2013-10-08 15:25:00,
2013-10-08 10:30:00,62.4,52.9,30.20,SSW,202,0.0,0.0,71,0.00,,,0.00,WUHU21623XXSP,2013-10-08 15:30:00,
2013-10-08 10:35:00,63.3,53.6,30.20,SSE,157,0.0,0.0,71,0.00,,,0.00,WUHU21623XXSP,2013-10-08 15:35:00,
2013-10-08 10:40:00,63.7,54.1,30.20,SSE,157,0.0,0.0,69,0.00,,,0.00,WUHU21623XXSP,2013-10-08 15:40:00,
2013-10-08 10:45:00,64.2,53.7,30.20,SSE,157,0.0,0.0,69,0.00,,,0.00,WUHU21623XXSP,2013-10-08 15:45:00,
2013-10-08 10:50:00,64.8,54.0,30.20,SSE,157,1.6,8.3,68,0.00,,,0.00,WUHU21623XXSP,2013-10-08 15:50:00,
2013-10-08 10:55:00,65.1,53.9,30.20,SSE,157,0.0,8.3,67,0.00,,,0.00,WUHU21623XXSP,2013-10-08 15:55:00,
2013-10-08 11:00:00,65.5,54.2,30.20,SSE,157,0.0,0.0,67,0.00,,,0.00,WUHU21623XXSP,2013-10-08 16:00:00,
2013-10-08 11:05:00,66.0,54.3,30.20,South,180,0.0,0.0,66,0.00,,,0.00,WUHU21623XXSP,2013-10-08 16:05:00,
2013-10-08 11:10:00,66.6,54.8,30.20,SSE,157,0.0,0.0,66,0.00,,,0.00,WUHU21623XXSP,2013-10-08 16:10:00,
2013-10-08 11:15:00,66.9,54.7,30.20,South,180,0.0,0.0,65,0.00,,,0.00,WUHU21623XXSP,2013-10-08 16:15:00,
2013-10-08 11:20:00,67.6,55.0,30.20,SSE,157,0.0,0.0,64,0.00,,,0.00,WUHU21623XXSP,2013-10-08 16:20:00,
2013-10-08 11:26:00,67.8,54.7,30.19,SSE,157,0.0,2.9,63,0.00,,,0.00,WUHU21623XXSP,2013-10-08 16:26:00,
2013-10-08 11:31:00,68.4,54.8,30.19,SSE,157,0.0,2.9,62,0.00,,,0.00,WUHU21623XXSP,2013-10-08 16:31:00,
2013-10-08 11:36:00,68.9,54.7,30.20,SSE,157,0.0,0.0,61,0.00,,,0.00,WUHU21623XXSP,2013-10-08 16:36:00,
2013-10-08 11:41:00,69.1,54.0,30.20,SSE,157,0.0,0.0,59,0.00,,,0.00,WUHU21623XXSP,2013-10-08 16:41:00,
2013-10-08 11:46:00,69.6,54.7,30.20,SSE,157,0.0,0.0,59,0.00,,,0.00,WUHU21623XXSP,2013-10-08 16:46:00,
2013-10-08 11:51:00,69.8,54.7,30.19,SSE,157,0.0,0.0,59,0.00,,,0.00,WUHU21623XXSP,2013-10-08 16:51:00,
2013-10-08 11:56:00,70.0,54.6,30.19,SSE,157,0.0,0.0,58,0.00,,,0.00,WUHU21623XXSP,2013-10-08 16:56:00,
2013-10-08 12:01:00,70.7,54.7,30.19,South,180,0.0,0.0,57,0.00,,,0.00,WUHU21623XXSP,2013-10-08 17:01:00,
2013-10-08 12:06:00,70.9,54.2,30.19,South,180,0.0,0.0,56,0.00,,,0.00,WUHU21623XXSP,2013-10-08 17:06:00,
2013-10-08 12:11:00,71.2,54.7,30.19,South,180,0.0,6.9,56,0.00,,,0.00,WUHU21623XXSP,2013-10-08 17:11:00,
2013-10-08 12:16:00,72.0,54.8,30.19,South,180,4.7,6.9,55,0.00,,,0.00,WUHU21623XXSP,2013-10-08 17:16:00,
2013-10-08 12:21:00,72.0,54.3,30.18,South,180,1.6,4.7,54,0.00,,,0.00,WUHU21623XXSP,2013-10-08 17:21:00,
2013-10-08 12:26:00,72.5,54.3,30.18,SSE,157,0.0,3.1,53,0.00,,,0.00,WUHU21623XXSP,2013-10-08 17:26:00,
2013-10-08 12:31:00,73.0,54.8,30.18,SSE,157,0.0,3.1,53,0.00,,,0.00,WUHU21623XXSP,2013-10-08 17:31:00,
2013-10-08 12:36:00,73.0,53.8,30.18,SSW,202,4.7,4.7,51,0.00,,,0.00,WUHU21623XXSP,2013-10-08 17:36:00,
2013-10-08 12:41:00,73.0,53.8,30.18,SW,225,0.0,4.7,51,0.00,,,0.00,WUHU21623XXSP,2013-10-08 17:41:00,
2013-10-08 12:46:00,73.2,53.3,30.17,SW,225,0.0,0.0,50,0.00,,,0.00,WUHU21623XXSP,2013-10-08 17:46:00,
2013-10-08 12:51:00,73.2,53.4,30.17,South,180,0.0,0.0,50,0.00,,,0.00,WUHU21623XXSP,2013-10-08 17:51:00,
2013-10-08 12:56:00,73.4,53.6,30.17,South,180,0.0,0.0,50,0.00,,,0.00,WUHU21623XXSP,2013-10-08 17:56:00,
2013-10-08 13:01:00,73.8,53.3,30.16,SSE,157,0.0,0.0,49,0.00,,,0.00,WUHU21623XXSP,2013-10-08 18:01:00,
2013-10-08 13:06:00,74.1,53.1,30.16,South,180,0.0,0.7,48,0.00,,,0.00,WUHU21623XXSP,2013-10-08 18:06:00,
2013-10-08 13:12:00,74.3,52.1,30.16,SW,225,0.0,0.7,46,0.00,,,0.00,WUHU21623XXSP,2013-10-08 18:12:00,
2013-10-08 13:16:00,74.3,52.1,30.16,SW,225,0.0,0.0,46,0.00,,,0.00,WUHU21623XXSP,2013-10-08 18:16:00,
2013-10-08 13:22:00,74.5,52.9,30.16,SW,225,0.0,0.0,47,0.00,,,0.00,WUHU21623XXSP,2013-10-08 18:22:00,
2013-10-08 13:27:00,74.8,52.3,30.16,South,180,0.0,6.0,46,0.00,,,0.00,WUHU21623XXSP,2013-10-08 18:27:00,
2013-10-08 13:32:00,74.8,52.6,30.16,South,180,0.0,6.0,46,0.00,,,0.00,WUHU21623XXSP,2013-10-08 18:32:00,
2013-10-08 13:37:00,74.5,51.7,30.15,SSE,157,1.6,1.6,45,0.00,,,0.00,WUHU21623XXSP,2013-10-08 18:37:00,
2013-10-08 13:42:00,75.0,52.8,30.15,SW,225,0.0,1.6,46,0.00,,,0.00,WUHU21623XXSP,2013-10-08 18:42:00,
2013-10-08 13:47:00,75.0,52.2,30.15,West,270,0.0,0.0,45,0.00,,,0.00,WUHU21623XXSP,2013-10-08 18:47:00,
2013-10-08 13:52:00,75.4,52.5,30.15,SW,225,0.0,0.0,45,0.00,,,0.00,WUHU21623XXSP,2013-10-08 18:52:00,
2013-10-08 13:57:00,75.4,51.9,30.14,SW,225,0.0,0.0,44,0.00,,,0.00,WUHU21623XXSP,2013-10-08 18:57:00,
2013-10-08 14:02:00,75.6,52.1,30.14,SW,225,0.0,0.0,44,0.00,,,0.00,WUHU21623XXSP,2013-10-08 19:02:00,
2013-10-08 14:07:00,75.9,52.4,30.14,SW,225,0.0,0.0,44,0.00,,,0.00,WUHU21623XXSP,2013-10-08 19:07:00,
2013-10-08 14:12:00,75.9,52.4,30.14,SW,225,0.0,0.0,44,0.00,,,0.00,WUHU21623XXSP,2013-10-08 19:12:00,
2013-10-08 14:17:00,75.7,51.6,30.14,SSE,157,0.0,0.0,41,0.00,,,0.00,WUHU21623XXSP,2013-10-08 19:17:00,
2013-10-08 14:22:00,75.7,51.6,30.14,South,180,0.0,0.0,43,0.00,,,0.00,WUHU21623XXSP,2013-10-08 19:22:00,
2013-10-08 14:27:00,75.4,51.9,30.14,WSW,247,0.0,0.0,44,0.00,,,0.00,WUHU21623XXSP,2013-10-08 19:27:00,
2013-10-08 14:32:00,75.6,52.1,30.14,WSW,247,0.0,0.0,44,0.00,,,0.00,WUHU21623XXSP,2013-10-08 19:32:00,
2013-10-08 14:37:00,75.6,51.4,30.14,WSW,247,0.0,0.0,43,0.00,,,0.00,WUHU21623XXSP,2013-10-08 19:37:00,
2013-10-08 14:42:00,75.7,52.2,30.14,WSW,247,0.0,0.0,44,0.00,,,0.00,WUHU21623XXSP,2013-10-08 19:42:00,
2013-10-08 14:47:00,75.9,52.4,30.14,SW,225,0.0,0.0,44,0.00,,,0.00,WUHU21623XXSP,2013-10-08 19:47:00,
2013-10-08 14:52:00,76.3,51.5,30.14,WSW,247,3.6,4.0,42,0.00,,,0.00,WUHU21623XXSP,2013-10-08 19:52:00,
2013-10-08 14:57:00,76.5,52.3,30.14,WSW,247,0.0,4.0,43,0.00,,,0.00,WUHU21623XXSP,2013-10-08 19:57:00,
2013-10-08 15:02:00,76.5,52.1,30.14,WSW,247,0.0,3.6,43,0.00,,,0.00,WUHU21623XXSP,2013-10-08 20:02:00,
2013-10-08 15:07:00,76.1,51.3,30.14,WSW,247,0.0,0.0,42,0.00,,,0.00,WUHU21623XXSP,2013-10-08 20:07:00,
2013-10-08 15:12:00,75.9,51.2,30.14,WSW,247,0.0,0.0,42,0.00,,,0.00,WUHU21623XXSP,2013-10-08 20:12:00,
2013-10-08 15:17:00,75.9,51.2,30.14,WSW,247,0.0,0.0,42,0.00,,,0.00,WUHU21623XXSP,2013-10-08 20:17:00,
2013-10-08 15:22:00,76.3,51.3,30.13,WSW,247,0.0,0.0,42,0.00,,,0.00,WUHU21623XXSP,2013-10-08 20:22:00,
2013-10-08 15:27:00,76.1,50.7,30.14,WSW,247,0.0,0.0,41,0.00,,,0.00,WUHU21623XXSP,2013-10-08 20:27:00,
2013-10-08 15:32:00,76.3,51.5,30.14,WSW,247,0.0,8.1,42,0.00,,,0.00,WUHU21623XXSP,2013-10-08 20:32:00,
2013-10-08 15:37:00,76.5,51.0,30.14,WSW,247,1.1,8.1,41,0.00,,,0.00,WUHU21623XXSP,2013-10-08 20:37:00,
2013-10-08 15:42:00,76.5,51.6,30.14,WSW,247,0.0,1.1,41,0.00,,,0.00,WUHU21623XXSP,2013-10-08 20:42:00,
2013-10-08 15:47:00,76.1,50.1,30.14,WSW,247,0.0,1.1,40,0.00,,,0.00,WUHU21623XXSP,2013-10-08 20:47:00,
2013-10-08 15:52:00,76.3,50.9,30.14,WSW,247,0.0,0.0,41,0.00,,,0.00,WUHU21623XXSP,2013-10-08 20:52:00,
2013-10-08 15:57:00,76.6,51.2,30.14,WSW,247,4.3,4.3,41,0.00,,,0.00,WUHU21623XXSP,2013-10-08 20:57:00,
2013-10-08 16:02:00,76.6,51.2,30.14,WSW,247,0.0,4.3,41,0.00,,,0.00,WUHU21623XXSP,2013-10-08 21:02:00,
2013-10-08 16:07:00,76.8,51.4,30.14,WSW,247,0.0,0.0,41,0.00,,,0.00,WUHU21623XXSP,2013-10-08 21:07:00,
2013-10-08 16:12:00,76.6,51.2,30.13,WSW,247,0.0,1.3,41,0.00,,,0.00,WUHU21623XXSP,2013-10-08 21:12:00,
2013-10-08 16:17:00,76.6,51.2,30.14,WSW,247,5.1,8.9,41,0.00,,,0.00,WUHU21623XXSP,2013-10-08 21:17:00,
2013-10-08 16:22:00,76.3,50.9,30.13,WSW,247,1.1,8.9,41,0.00,,,0.00,WUHU21623XXSP,2013-10-08 21:22:00,
2013-10-08 16:27:00,76.1,50.7,30.13,WSW,247,0.0,1.1,41,0.00,,,0.00,WUHU21623XXSP,2013-10-08 21:27:00,
2013-10-08 16:32:00,76.3,50.9,30.13,WSW,247,0.0,0.0,41,0.00,,,0.00,WUHU21623XXSP,2013-10-08 21:32:00,
2013-10-08 16:37:00,75.9,50.5,30.13,WSW,247,4.7,4.7,41,0.00,,,0.00,WUHU21623XXSP,2013-10-08 21:37:00,
2013-10-08 16:42:00,75.9,50.5,30.13,WSW,247,0.0,4.7,41,0.00,,,0.00,WUHU21623XXSP,2013-10-08 21:42:00,
2013-10-08 16:47:00,75.9,50.5,30.13,WSW,247,6.9,6.9,41,0.00,,,0.00,WUHU21623XXSP,2013-10-08 21:47:00,
2013-10-08 16:52:00,75.9,50.5,30.13,WSW,247,0.0,6.9,41,0.00,,,0.00,WUHU21623XXSP,2013-10-08 21:52:00,
2013-10-08 16:57:00,75.7,50.5,30.14,WSW,247,0.0,0.0,41,0.00,,,0.00,WUHU21623XXSP,2013-10-08 21:57:00,
2013-10-08 17:02:00,75.7,51.0,30.13,WSW,247,0.0,0.0,42,0.00,,,0.00,WUHU21623XXSP,2013-10-08 22:02:00,
2013-10-08 17:07:00,75.6,50.8,30.13,WSW,247,0.0,0.0,42,0.00,,,0.00,WUHU21623XXSP,2013-10-08 22:07:00,
2013-10-08 17:12:00,75.4,50.7,30.13,WSW,247,0.0,0.0,42,0.00,,,0.00,WUHU21623XXSP,2013-10-08 22:12:00,
2013-10-08 17:17:00,75.2,50.5,30.13,WSW,247,0.0,0.0,42,0.00,,,0.00,WUHU21623XXSP,2013-10-08 22:17:00,
2013-10-08 17:22:00,74.5,50.2,30.14,WSW,247,0.0,0.0,42,0.00,,,0.00,WUHU21623XXSP,2013-10-08 22:22:00,
2013-10-08 17:27:00,74.5,49.8,30.14,WSW,247,0.0,0.0,42,0.00,,,0.00,WUHU21623XXSP,2013-10-08 22:27:00,
2013-10-08 17:32:00,74.3,50.3,30.14,WSW,247,0.0,0.0,43,0.00,,,0.00,WUHU21623XXSP,2013-10-08 22:32:00,
2013-10-08 17:37:00,73.9,49.9,30.14,WSW,247,0.0,0.0,43,0.00,,,0.00,WUHU21623XXSP,2013-10-08 22:37:00,
2013-10-08 17:42:00,73.6,49.6,30.14,WSW,247,0.0,0.0,43,0.00,,,0.00,WUHU21623XXSP,2013-10-08 22:42:00,
2013-10-08 17:47:00,73.2,49.9,30.14,SE,135,0.0,0.0,44,0.00,,,0.00,WUHU21623XXSP,2013-10-08 22:47:00,
2013-10-08 17:52:00,72.9,50.1,30.14,SE,135,0.0,0.0,45,0.00,,,0.00,WUHU21623XXSP,2013-10-08 22:52:00,
2013-10-08 17:57:00,72.5,49.8,30.14,SE,135,0.0,0.0,45,0.00,,,0.00,WUHU21623XXSP,2013-10-08 22:57:00,
2013-10-08 18:02:00,72.0,50.1,30.14,SE,135,0.0,0.0,46,0.00,,,0.00,WUHU21623XXSP,2013-10-08 23:02:00,
2013-10-08 18:07:00,71.4,50.0,30.14,SE,135,0.0,0.0,47,0.00,,,0.00,WUHU21623XXSP,2013-10-08 23:07:00,
2013-10-08 18:12:00,71.4,50.0,30.14,SE,135,0.0,0.0,47,0.00,,,0.00,WUHU21623XXSP,2013-10-08 23:12:00,
2013-10-08 18:17:00,70.3,49.4,30.14,SE,135,0.0,0.0,48,0.00,,,0.00,WUHU21623XXSP,2013-10-08 23:17:00,
2013-10-08 18:22:00,70.0,49.5,30.14,SE,135,0.0,0.0,48,0.00,,,0.00,WUHU21623XXSP,2013-10-08 23:22:00,
2013-10-08 18:27:00,69.6,49.0,30.14,SE,135,0.0,0.0,48,0.00,,,0.00,WUHU21623XXSP,2013-10-08 23:27:00,
2013-10-08 18:33:00,68.5,48.6,30.15,SE,135,0.0,0.0,49,0.00,,,0.00,WUHU21623XXSP,2013-10-08 23:33:00,
2013-10-08 18:38:00,67.8,48.9,30.14,SE,135,0.0,0.0,50,0.00,,,0.00,WUHU21623XXSP,2013-10-08 23:38:00,
2013-10-08 18:43:00,67.6,48.9,30.14,SE,135,0.0,0.0,51,0.00,,,0.00,WUHU21623XXSP,2013-10-08 23:43:00,
2013-10-08 18:48:00,66.9,48.7,30.14,SE,135,0.0,0.0,52,0.00,,,0.00,WUHU21623XXSP,2013-10-08 23:48:00,
2013-10-08 18:53:00,66.7,48.6,30.15,SE,135,0.0,0.0,53,0.00,,,0.00,WUHU21623XXSP,2013-10-08 23:53:00,
2013-10-08 18:58:00,66.2,49.1,30.15,SE,135,0.0,0.0,54,0.00,,,0.00,WUHU21623XXSP,2013-10-08 23:58:00,
2013-10-08 19:03:00,65.5,48.7,30.15,SE,135,0.0,0.0,54,0.00,,,0.00,WUHU21623XXSP,2013-10-09 00:03:00,
2013-10-08 19:08:00,64.8,48.6,30.15,SE,135,0.0,0.0,56,0.00,,,0.00,WUHU21623XXSP,2013-10-09 00:08:00,
2013-10-08 19:13:00,64.2,48.4,30.15,SE,135,0.0,0.0,56,0.00,,,0.00,WUHU21623XXSP,2013-10-09 00:13:00,
2013-10-08 19:18:00,64.0,48.4,30.15,SE,135,0.0,0.0,57,0.00,,,0.00,WUHU21623XXSP,2013-10-09 00:18:00,
2013-10-08 19:23:00,63.9,48.2,30.16,SSE,157,0.0,0.0,57,0.00,,,0.00,WUHU21623XXSP,2013-10-09 00:23:00,
2013-10-08 19:28:00,63.7,48.1,30.16,SSE,157,0.0,0.0,57,0.00,,,0.00,WUHU21623XXSP,2013-10-09 00:28:00,
2013-10-08 19:33:00,63.5,48.4,30.16,SSE,157,0.0,0.0,58,0.00,,,0.00,WUHU21623XXSP,2013-10-09 00:33:00,
2013-10-08 19:38:00,63.1,48.6,30.16,SSE,157,0.0,0.0,59,0.00,,,0.00,WUHU21623XXSP,2013-10-09 00:38:00,
2013-10-08 19:43:00,62.8,48.6,30.15,SSE,157,0.0,0.0,59,0.00,,,0.00,WUHU21623XXSP,2013-10-09 00:43:00,
2013-10-08 19:48:00,62.4,48.7,30.16,SSE,157,0.0,0.0,60,0.00,,,0.00,WUHU21623XXSP,2013-10-09 00:48:00,
2013-10-08 19:53:00,62.4,48.4,30.16,SSE,157,0.0,0.0,60,0.00,,,0.00,WUHU21623XXSP,2013-10-09 00:53:00,
2013-10-08 19:58:00,62.2,48.2,30.16,SSE,157,0.0,0.0,60,0.00,,,0.00,WUHU21623XXSP,2013-10-09 00:58:00,
2013-10-08 20:03:00,61.9,48.3,30.16,SSE,157,0.0,0.0,61,0.00,,,0.00,WUHU21623XXSP,2013-10-09 01:03:00,
2013-10-08 20:08:00,61.7,48.3,30.16,SSE,157,0.0,0.0,61,0.00,,,0.00,WUHU21623XXSP,2013-10-09 01:08:00,
2013-10-08 20:13:00,61.3,48.3,30.16,SSE,157,0.0,0.0,62,0.00,,,0.00,WUHU21623XXSP,2013-10-09 01:13:00,
2013-10-08 20:18:00,61.2,48.1,30.16,SSE,157,0.0,0.0,62,0.00,,,0.00,WUHU21623XXSP,2013-10-09 01:18:00,
2013-10-08 20:23:00,61.0,47.9,30.16,SSE,157,0.0,0.0,62,0.00,,,0.00,WUHU21623XXSP,2013-10-09 01:23:00,
2013-10-08 20:28:00,60.6,47.6,30.16,SSE,157,0.0,0.0,62,0.00,,,0.00,WUHU21623XXSP,2013-10-09 01:28:00,
2013-10-08 20:33:00,60.4,47.8,30.17,SSE,157,0.0,0.0,63,0.00,,,0.00,WUHU21623XXSP,2013-10-09 01:33:00,
2013-10-08 20:38:00,60.1,47.9,30.16,SSE,157,0.0,0.0,64,0.00,,,0.00,WUHU21623XXSP,2013-10-09 01:38:00,
2013-10-08 20:43:00,59.7,47.5,30.17,SSE,157,0.0,0.0,64,0.00,,,0.00,WUHU21623XXSP,2013-10-09 01:43:00,
2013-10-08 20:48:00,59.5,47.8,30.17,SSE,157,0.0,0.0,65,0.00,,,0.00,WUHU21623XXSP,2013-10-09 01:48:00,
2013-10-08 20:53:00,59.5,47.8,30.17,SSE,157,0.0,0.0,65,0.00,,,0.00,WUHU21623XXSP,2013-10-09 01:53:00,
2013-10-08 20:58:00,59.7,47.9,30.17,SSE,157,0.0,0.0,65,0.00,,,0.00,WUHU21623XXSP,2013-10-09 01:58:00,
2013-10-08 21:03:00,59.7,47.9,30.17,SSE,157,0.0,0.0,65,0.00,,,0.00,WUHU21623XXSP,2013-10-09 02:03:00,
2013-10-08 21:08:00,59.7,47.9,30.17,SSE,157,0.0,0.0,65,0.00,,,0.00,WUHU21623XXSP,2013-10-09 02:08:00,
2013-10-08 21:13:00,59.5,47.8,30.17,SSE,157,0.0,0.0,65,0.00,,,0.00,WUHU21623XXSP,2013-10-09 02:13:00,
2013-10-08 21:18:00,59.5,47.8,30.17,SSE,157,0.0,0.0,65,0.00,,,0.00,WUHU21623XXSP,2013-10-09 02:18:00,
2013-10-08 21:23:00,59.5,48.2,30.17,SSE,157,0.0,0.0,66,0.00,,,0.00,WUHU21623XXSP,2013-10-09 02:23:00,
2013-10-08 21:28:00,59.4,48.0,30.17,SSE,157,0.0,0.0,66,0.00,,,0.00,WUHU21623XXSP,2013-10-09 02:28:00,
2013-10-08 21:33:00,59.0,47.8,30.17,SSE,157,0.0,0.0,66,0.00,,,0.00,WUHU21623XXSP,2013-10-09 02:33:00,
2013-10-08 21:38:00,58.8,47.9,30.17,SSE,157,0.0,0.0,67,0.00,,,0.00,WUHU21623XXSP,2013-10-09 02:38:00,
2013-10-08 21:43:00,58.8,47.9,30.17,SSE,157,1.8,1.8,67,0.00,,,0.00,WUHU21623XXSP,2013-10-09 02:43:00,
2013-10-08 21:49:00,58.8,47.9,30.18,SSE,157,0.0,1.8,67,0.00,,,0.00,WUHU21623XXSP,2013-10-09 02:49:00,
2013-10-08 21:54:00,58.6,48.1,30.18,SSE,157,0.0,1.8,68,0.00,,,0.00,WUHU21623XXSP,2013-10-09 02:54:00,
2013-10-08 21:59:00,58.5,47.9,30.18,SSE,157,0.0,0.0,68,0.00,,,0.00,WUHU21623XXSP,2013-10-09 02:59:00,
2013-10-08 22:04:00,58.3,47.7,30.18,SSE,157,0.0,0.0,68,0.00,,,0.00,WUHU21623XXSP,2013-10-09 03:04:00,
2013-10-08 22:09:00,57.9,47.4,30.18,SSE,157,0.0,0.0,68,0.00,,,0.00,WUHU21623XXSP,2013-10-09 03:09:00,
2013-10-08 22:14:00,57.9,47.8,30.18,SSE,157,0.0,0.0,69,0.00,,,0.00,WUHU21623XXSP,2013-10-09 03:14:00,
2013-10-08 22:19:00,57.6,47.4,30.18,SSE,157,0.0,0.0,69,0.00,,,0.00,WUHU21623XXSP,2013-10-09 03:19:00,
2013-10-08 22:24:00,57.0,47.2,30.18,SSE,157,0.0,0.0,69,0.00,,,0.00,WUHU21623XXSP,2013-10-09 03:24:00,
2013-10-08 22:29:00,57.0,47.3,30.18,SSE,157,0.0,0.0,70,0.00,,,0.00,WUHU21623XXSP,2013-10-09 03:29:00,
2013-10-08 22:34:00,56.8,47.2,30.18,SSE,157,0.0,0.0,70,0.00,,,0.00,WUHU21623XXSP,2013-10-09 03:34:00,
2013-10-08 22:39:00,56.5,46.8,30.18,SSE,157,0.0,0.0,71,0.00,,,0.00,WUHU21623XXSP,2013-10-09 03:39:00,
2013-10-08 22:44:00,56.1,46.9,30.18,SSE,157,0.0,0.0,72,0.00,,,0.00,WUHU21623XXSP,2013-10-09 03:44:00,
2013-10-08 22:49:00,55.6,46.7,30.18,SSE,157,0.0,0.0,72,0.00,,,0.00,WUHU21623XXSP,2013-10-09 03:49:00,
2013-10-08 22:54:00,55.2,46.4,30.18,SSE,157,0.0,0.0,72,0.00,,,0.00,WUHU21623XXSP,2013-10-09 03:54:00,
2013-10-08 22:59:00,55.2,46.7,30.18,SSE,157,0.0,0.0,73,0.00,,,0.00,WUHU21623XXSP,2013-10-09 03:59:00,
2013-10-08 23:01:00,55.0,46.5,30.18,SSE,157,0.0,0.0,73,0.00,,,0.00,WUHU21623XXSP,2013-10-09 04:01:00,
2013-10-08 23:02:00,55.0,46.5,30.18,SSE,157,0.0,0.0,73,0.00,,,0.00,WUHU21623XXSP,2013-10-09 04:02:00,
2013-10-08 23:07:00,54.7,46.5,30.18,SSE,157,0.0,0.0,74,0.00,,,0.00,WUHU21623XXSP,2013-10-09 04:07:00,
2013-10-08 23:13:00,54.7,46.5,30.18,SSE,157,0.0,0.0,74,0.00,,,0.00,WUHU21623XXSP,2013-10-09 04:13:00,
2013-10-08 23:18:00,54.3,46.2,30.18,SSE,157,0.0,0.0,74,0.00,,,0.00,WUHU21623XXSP,2013-10-09 04:18:00,
2013-10-08 23:22:00,54.3,46.4,30.18,SSE,157,0.0,0.0,75,0.00,,,0.00,WUHU21623XXSP,2013-10-09 04:22:00,
2013-10-08 23:27:00,54.0,46.4,30.17,SSE,157,0.0,0.0,75,0.00,,,0.00,WUHU21623XXSP,2013-10-09 04:27:00,
2013-10-08 23:32:00,53.8,46.4,30.17,SSE,157,0.0,0.0,76,0.00,,,0.00,WUHU21623XXSP,2013-10-09 04:32:00,
2013-10-08 23:37:00,53.4,46.0,30.17,SSE,157,0.0,0.0,76,0.00,,,0.00,WUHU21623XXSP,2013-10-09 04:37:00,
2013-10-08 23:42:00,53.4,46.0,30.17,SSE,157,0.0,0.0,76,0.00,,,0.00,WUHU21623XXSP,2013-10-09 04:42:00,
2013-10-08 23:48:00,53.1,46.0,30.17,SSE,157,0.0,0.0,77,0.00,,,0.00,WUHU21623XXSP,2013-10-09 04:48:00,
2013-10-08 23:53:00,52.9,46.0,30.17,SSE,157,0.0,0.0,77,0.00,,,0.00,WUHU21623XXSP,2013-10-09 04:53:00,
2013-10-08 23:58:00,52.7,46.1,30.17,SSE,157,0.0,0.0,78,0.00,,,0.00,WUHU21623XXSP,2013-10-09 04:58:00,